Time,TemperatureF,DewpointF,PressureIn,WindDirection,WindDirectionDegrees,WindSpeedMPH,WindSpeedGustMPH,Humidity,HourlyPrecipIn,Conditions,Clouds,dailyrainin,SoftwareType,DateUTC
2013-03-18 00:02:00,33.0,33.0,29.91,ENE,76,12.0,23.0,100,0.00,,,0.00,,2013-03-18 05:02:00,
2013-03-18 00:12:00,33.0,33.0,29.91,ENE,76,12.0,23.0,100,0.00,,,0.00,,2013-03-18 05:12:00,
2013-03-18 00:22:00,33.0,33.0,29.91,East,92,14.0,20.0,100,0.00,,,0.00,,2013-03-18 05:22:00,
2013-03-18 00:32:00,33.0,33.0,29.91,ENE,69,14.0,16.0,100,0.00,,,0.00,,2013-03-18 05:32:00,
2013-03-18 00:43:00,33.0,33.0,29.91,ENE,69,14.0,16.0,100,0.00,,,0.00,,2013-03-18 05:43:00,
2013-03-18 00:52:00,33.0,33.0,29.90,East,82,14.0,22.0,100,0.00,,,0.00,,2013-03-18 05:52:00,
2013-03-18 01:02:00,32.0,32.0,29.89,NE,38,14.0,16.0,100,0.00,,,0.00,,2013-03-18 06:02:00,
2013-03-18 01:12:00,32.0,32.0,29.89,NE,38,14.0,16.0,100,0.00,,,0.00,,2013-03-18 06:12:00,
2013-03-18 01:22:00,32.0,32.0,29.87,East,83,12.0,21.0,100,0.00,,,0.00,,2013-03-18 06:22:00,
2013-03-18 01:32:00,32.0,32.0,29.87,ENE,71,13.0,16.0,100,0.00,,,0.00,,2013-03-18 06:32:00,
2013-03-18 01:42:00,32.0,32.0,29.87,ENE,71,13.0,16.0,100,0.00,,,0.00,,2013-03-18 06:42:00,
2013-03-18 01:52:00,32.0,32.0,29.85,ENE,61,14.0,23.0,100,0.00,,,0.00,,2013-03-18 06:52:00,
2013-03-18 02:02:00,32.0,32.0,29.86,East,92,14.0,17.0,100,0.00,,,0.00,,2013-03-18 07:02:00,
2013-03-18 02:12:00,32.0,32.0,29.86,East,92,14.0,17.0,100,0.00,,,0.00,,2013-03-18 07:12:00,
2013-03-18 02:22:00,32.0,32.0,29.85,East,89,17.0,20.0,100,0.00,,,0.00,,2013-03-18 07:22:00,
2013-03-18 02:42:00,32.0,32.0,29.83,NE,55,15.0,23.0,100,0.00,,,0.00,,2013-03-18 07:42:00,
2013-03-18 02:52:00,32.0,32.0,29.82,ENE,75,17.0,21.0,100,0.00,,,0.00,,2013-03-18 07:52:00,
2013-03-18 03:02:00,31.0,31.0,29.82,NE,52,14.0,21.0,100,0.00,,,0.00,,2013-03-18 08:02:00,
2013-03-18 03:12:00,31.0,31.0,29.82,NE,52,14.0,21.0,100,0.00,,,0.00,,2013-03-18 08:12:00,
2013-03-18 03:22:00,31.0,31.0,29.82,NE,52,14.0,21.0,100,0.00,,,0.00,,2013-03-18 08:22:00,
2013-03-18 03:32:00,31.0,31.0,29.80,ENE,58,13.0,22.0,100,0.00,,,0.00,,2013-03-18 08:32:00,
2013-03-18 03:43:00,31.0,31.0,29.80,ENE,58,13.0,22.0,100,0.00,,,0.00,,2013-03-18 08:43:00,
2013-03-18 03:53:00,31.0,31.0,29.78,East,82,13.0,17.0,100,0.00,,,0.00,,2013-03-18 08:53:00,
2013-03-18 04:02:00,31.0,31.0,29.78,ENE,64,12.0,13.0,100,0.00,,,0.00,,2013-03-18 09:02:00,
2013-03-18 04:12:00,31.0,31.0,29.78,ENE,64,12.0,13.0,100,0.00,,,0.00,,2013-03-18 09:12:00,
2013-03-18 04:22:00,31.0,31.0,29.78,ENE,68,12.0,17.0,100,0.00,,,0.00,,2013-03-18 09:22:00,
2013-03-18 04:33:00,31.0,31.0,29.77,East,82,10.0,16.0,100,0.00,,,0.00,,2013-03-18 09:33:00,
2013-03-18 04:43:00,31.0,31.0,29.77,East,82,10.0,16.0,100,0.00,,,0.00,,2013-03-18 09:43:00,
2013-03-18 04:53:00,31.0,31.0,29.77,ENE,61,10.0,10.0,100,0.00,,,0.00,,2013-03-18 09:53:00,
2013-03-18 05:03:00,31.0,31.0,29.76,ENE,66,10.0,15.0,100,0.00,,,0.00,,2013-03-18 10:03:00,
2013-03-18 05:12:00,31.0,31.0,29.76,ENE,66,10.0,15.0,100,0.00,,,0.00,,2013-03-18 10:12:00,
2013-03-18 05:23:00,31.0,31.0,29.76,ENE,69,9.0,14.0,100,0.00,,,0.00,,2013-03-18 10:23:00,
2013-03-18 05:33:00,31.0,31.0,29.75,NE,52,12.0,16.0,100,0.00,,,0.00,,2013-03-18 10:33:00,
2013-03-18 05:42:00,31.0,31.0,29.75,NE,52,12.0,16.0,100,0.00,,,0.00,,2013-03-18 10:42:00,
2013-03-18 05:52:00,31.0,31.0,29.74,NE,55,10.0,17.0,100,0.00,,,0.00,,2013-03-18 10:52:00,
2013-03-18 06:03:00,31.0,31.0,29.74,ENE,62,8.0,13.0,100,0.00,,,0.00,,2013-03-18 11:03:00,
2013-03-18 06:13:00,31.0,31.0,29.74,ENE,62,8.0,13.0,100,0.00,,,0.00,,2013-03-18 11:13:00,
2013-03-18 06:22:00,31.0,31.0,29.74,ENE,61,10.0,12.0,100,0.00,,,0.00,,2013-03-18 11:22:00,
2013-03-18 06:32:00,31.0,31.0,29.74,ENE,66,10.0,13.0,100,0.00,,,0.00,,2013-03-18 11:32:00,
2013-03-18 06:42:00,31.0,31.0,29.74,ENE,66,10.0,13.0,100,0.00,,,0.00,,2013-03-18 11:42:00,
2013-03-18 06:52:00,31.0,31.0,29.74,ENE,73,10.0,13.0,100,0.00,,,0.00,,2013-03-18 11:52:00,
2013-03-18 07:02:00,31.0,31.0,29.72,NE,42,9.0,13.0,100,0.00,,,0.00,,2013-03-18 12:02:00,
2013-03-18 07:12:00,31.0,31.0,29.72,NE,42,9.0,13.0,100,0.00,,,0.00,,2013-03-18 12:12:00,
2013-03-18 07:22:00,31.0,31.0,29.72,ENE,65,12.0,14.0,100,0.00,,,0.00,,2013-03-18 12:22:00,
2013-03-18 07:32:00,31.0,31.0,29.71,ENE,69,9.0,14.0,100,0.00,,,0.00,,2013-03-18 12:32:00,
2013-03-18 07:42:00,31.0,31.0,29.71,ENE,69,9.0,14.0,100,0.00,,,0.00,,2013-03-18 12:42:00,
2013-03-18 07:52:00,31.0,31.0,29.71,ENE,73,8.0,13.0,100,0.00,,,0.00,,2013-03-18 12:52:00,
2013-03-18 08:02:00,31.0,31.0,29.72,NE,51,8.0,12.0,100,0.00,,,0.00,,2013-03-18 13:02:00,
2013-03-18 08:12:00,31.0,31.0,29.72,NE,51,8.0,12.0,100,0.00,,,0.00,,2013-03-18 13:12:00,
2013-03-18 08:22:00,31.0,31.0,29.72,ENE,75,7.0,9.0,100,0.00,,,0.00,,2013-03-18 13:22:00,
2013-03-18 08:33:00,31.0,31.0,29.71,ENE,71,8.0,12.0,100,0.00,,,0.00,,2013-03-18 13:33:00,
2013-03-18 08:42:00,31.0,31.0,29.71,ENE,71,8.0,12.0,100,0.00,,,0.00,,2013-03-18 13:42:00,
2013-03-18 08:52:00,31.0,31.0,29.70,NE,34,9.0,12.0,100,0.00,,,0.00,,2013-03-18 13:52:00,
2013-03-18 09:02:00,31.0,31.0,29.70,ENE,62,8.0,10.0,100,0.00,,,0.00,,2013-03-18 14:02:00,
2013-03-18 09:12:00,31.0,31.0,29.70,ENE,62,8.0,10.0,100,0.00,,,0.00,,2013-03-18 14:12:00,
2013-03-18 09:22:00,31.0,31.0,29.70,ENE,61,8.0,9.0,100,0.00,,,0.00,,2013-03-18 14:22:00,
2013-03-18 09:32:00,31.0,31.0,29.70,ENE,62,7.0,8.0,100,0.00,,,0.00,,2013-03-18 14:32:00,
2013-03-18 09:42:00,31.0,31.0,29.70,ENE,62,7.0,8.0,100,0.00,,,0.00,,2013-03-18 14:42:00,
2013-03-18 09:52:00,31.0,31.0,29.70,ENE,62,7.0,8.0,100,0.00,,,0.00,,2013-03-18 14:52:00,
2013-03-18 10:02:00,31.0,31.0,29.69,NE,47,6.0,6.0,100,0.00,,,0.00,,2013-03-18 15:02:00,
2013-03-18 10:12:00,31.0,31.0,29.69,NE,47,6.0,6.0,100,0.00,,,0.00,,2013-03-18 15:12:00,
2013-03-18 10:22:00,31.0,31.0,29.68,NNE,27,6.0,7.0,100,0.00,,,0.00,,2013-03-18 15:22:00,
2013-03-18 10:33:00,32.0,32.0,29.69,NNE,31,2.0,5.0,100,0.00,,,0.00,,2013-03-18 15:33:00,
2013-03-18 10:43:00,32.0,32.0,29.69,NNE,31,2.0,5.0,100,0.00,,,0.00,,2013-03-18 15:43:00,
2013-03-18 10:52:00,31.0,31.0,29.68,NE,34,5.0,6.0,100,0.00,,,0.00,,2013-03-18 15:52:00,
2013-03-18 11:03:00,32.0,32.0,29.67,NE,38,6.0,7.0,100,0.00,,,0.00,,2013-03-18 16:03:00,
2013-03-18 11:12:00,32.0,32.0,29.67,NE,38,6.0,7.0,100,0.00,,,0.00,,2013-03-18 16:12:00,
2013-03-18 11:22:00,32.0,32.0,29.68,NE,49,0.0,0.0,100,0.00,,,0.00,,2013-03-18 16:22:00,
2013-03-18 11:32:00,33.0,33.0,29.70,North,0,0.0,0.0,100,0.01,,,0.01,,2013-03-18 16:32:00,
2013-03-18 11:42:00,33.0,33.0,29.70,North,0,0.0,0.0,100,0.01,,,0.01,,2013-03-18 16:42:00,
2013-03-18 11:52:00,33.0,33.0,29.69,North,0,0.0,0.0,100,0.01,,,0.01,,2013-03-18 16:52:00,
2013-03-18 12:02:00,33.0,33.0,29.69,North,0,0.0,0.0,100,0.01,,,0.01,,2013-03-18 17:02:00,
2013-03-18 12:12:00,33.0,33.0,29.69,North,0,0.0,0.0,100,0.01,,,0.01,,2013-03-18 17:12:00,
2013-03-18 12:22:00,34.0,34.0,29.69,North,0,0.0,0.0,100,0.01,,,0.01,,2013-03-18 17:22:00,
2013-03-18 12:32:00,35.0,35.0,29.69,North,0,0.0,0.0,100,0.00,,,0.01,,2013-03-18 17:32:00,
2013-03-18 12:42:00,35.0,35.0,29.69,North,0,0.0,0.0,100,0.00,,,0.01,,2013-03-18 17:42:00,
2013-03-18 12:52:00,35.0,35.0,29.68,North,0,0.0,0.0,100,0.00,,,0.01,,2013-03-18 17:52:00,
2013-03-18 13:02:00,36.0,36.0,29.67,North,0,0.0,0.0,100,0.00,,,0.01,,2013-03-18 18:02:00,
2013-03-18 13:12:00,36.0,36.0,29.67,North,0,0.0,0.0,100,0.00,,,0.01,,2013-03-18 18:12:00,
2013-03-18 13:22:00,36.0,36.0,29.67,North,0,0.0,0.0,100,0.00,,,0.01,,2013-03-18 18:22:00,
2013-03-18 13:32:00,36.0,36.0,29.67,SW,224,8.0,8.0,100,0.00,,,0.01,,2013-03-18 18:32:00,
2013-03-18 13:42:00,36.0,36.0,29.67,SW,224,8.0,8.0,100,0.00,,,0.01,,2013-03-18 18:42:00,
2013-03-18 13:52:00,36.0,36.0,29.67,SW,224,8.0,8.0,100,0.00,,,0.01,,2013-03-18 18:52:00,
2013-03-18 14:02:00,37.0,37.0,29.68,WSW,247,10.0,15.0,100,0.00,,,0.01,,2013-03-18 19:02:00,
2013-03-18 14:12:00,37.0,37.0,29.68,WSW,247,10.0,15.0,100,0.00,,,0.01,,2013-03-18 19:12:00,
2013-03-18 14:22:00,38.0,38.0,29.68,WSW,243,12.0,13.0,100,0.00,,,0.01,,2013-03-18 19:22:00,
2013-03-18 14:33:00,38.0,38.0,29.67,WSW,250,13.0,17.0,100,0.00,,,0.01,,2013-03-18 19:33:00,
2013-03-18 14:42:00,38.0,38.0,29.67,WSW,250,13.0,17.0,100,0.00,,,0.01,,2013-03-18 19:42:00,
2013-03-18 14:52:00,38.0,38.0,29.67,WSW,250,13.0,17.0,100,0.00,,,0.01,,2013-03-18 19:52:00,
2013-03-18 15:02:00,38.0,38.0,29.67,WSW,250,13.0,17.0,100,0.00,,,0.01,,2013-03-18 20:02:00,
2013-03-18 15:23:00,38.0,38.0,29.67,West,265,12.0,15.0,100,0.00,,,0.01,,2013-03-18 20:23:00,
2013-03-18 15:33:00,38.0,38.0,29.67,West,274,10.0,13.0,100,0.00,,,0.01,,2013-03-18 20:33:00,
2013-03-18 15:42:00,38.0,38.0,29.67,West,274,10.0,13.0,100,0.00,,,0.01,,2013-03-18 20:42:00,
2013-03-18 15:52:00,38.0,38.0,29.67,West,280,12.0,15.0,100,0.00,,,0.01,,2013-03-18 20:52:00,
2013-03-18 16:02:00,38.0,38.0,29.67,WNW,284,10.0,15.0,100,0.00,,,0.01,,2013-03-18 21:02:00,
2013-03-18 16:12:00,38.0,38.0,29.67,WNW,284,10.0,15.0,100,0.00,,,0.01,,2013-03-18 21:12:00,
2013-03-18 16:22:00,38.0,38.0,29.67,West,272,14.0,16.0,100,0.00,,,0.01,,2013-03-18 21:22:00,
2013-03-18 16:32:00,38.0,38.0,29.67,West,270,12.0,14.0,100,0.00,,,0.01,,2013-03-18 21:32:00,
2013-03-18 16:42:00,38.0,38.0,29.67,West,270,12.0,14.0,100,0.00,,,0.01,,2013-03-18 21:42:00,
2013-03-18 16:52:00,38.0,38.0,29.67,West,271,14.0,18.0,100,0.00,,,0.01,,2013-03-18 21:52:00,
2013-03-18 17:03:00,39.0,39.0,29.68,West,267,13.0,18.0,100,0.00,,,0.01,,2013-03-18 22:03:00,
2013-03-18 17:13:00,39.0,39.0,29.68,West,267,13.0,18.0,100,0.00,,,0.01,,2013-03-18 22:13:00,
2013-03-18 17:23:00,38.0,38.0,29.69,West,277,14.0,20.0,100,0.00,,,0.01,,2013-03-18 22:23:00,
2013-03-18 17:33:00,38.0,38.0,29.69,West,281,15.0,23.0,100,0.00,,,0.01,,2013-03-18 22:33:00,
2013-03-18 17:42:00,38.0,38.0,29.69,West,281,15.0,23.0,100,0.00,,,0.01,,2013-03-18 22:42:00,
2013-03-18 17:52:00,38.0,38.0,29.70,West,264,14.0,16.0,100,0.00,,,0.01,,2013-03-18 22:52:00,
2013-03-18 18:03:00,38.0,38.0,29.70,West,271,15.0,18.0,100,0.00,,,0.01,,2013-03-18 23:03:00,
2013-03-18 18:12:00,38.0,38.0,29.70,West,271,15.0,18.0,100,0.00,,,0.01,,2013-03-18 23:12:00,
2013-03-18 18:22:00,38.0,38.0,29.72,West,275,14.0,17.0,100,0.00,,,0.01,,2013-03-18 23:22:00,
2013-03-18 18:32:00,36.0,36.0,29.73,West,274,14.0,24.0,100,0.00,,,0.01,,2013-03-18 23:32:00,
2013-03-18 18:42:00,36.0,36.0,29.73,West,274,14.0,24.0,100,0.00,,,0.01,,2013-03-18 23:42:00,
2013-03-18 18:52:00,35.0,35.0,29.75,West,281,14.0,16.0,100,0.00,,,0.01,,2013-03-18 23:52:00,
2013-03-18 19:02:00,33.0,33.0,29.76,WNW,291,16.0,23.0,99,0.00,,,0.01,,2013-03-19 00:02:00,
2013-03-18 19:12:00,33.0,33.0,29.76,WNW,291,16.0,23.0,99,0.00,,,0.01,,2013-03-19 00:12:00,
2013-03-18 19:22:00,32.0,32.0,29.77,West,277,18.0,25.0,99,0.00,,,0.01,,2013-03-19 00:22:00,
2013-03-18 19:32:00,31.0,31.0,29.78,WNW,287,14.0,18.0,100,0.00,,,0.01,,2013-03-19 00:32:00,
2013-03-18 19:42:00,31.0,31.0,29.78,WNW,287,14.0,18.0,100,0.00,,,0.01,,2013-03-19 00:42:00,
2013-03-18 19:52:00,30.0,30.0,29.79,WNW,284,13.0,21.0,100,0.00,,,0.01,,2013-03-19 00:52:00,
2013-03-18 20:02:00,30.0,30.0,29.79,WNW,284,13.0,21.0,100,0.00,,,0.01,,2013-03-19 01:02:00,
2013-03-18 20:12:00,30.0,30.0,29.79,WNW,284,13.0,21.0,100,0.00,,,0.01,,2013-03-19 01:12:00,
2013-03-18 20:22:00,29.0,29.0,29.81,West,263,14.0,23.0,99,0.00,,,0.01,,2013-03-19 01:22:00,
2013-03-18 20:32:00,29.0,28.0,29.82,WNW,292,15.0,26.0,97,0.00,,,0.01,,2013-03-19 01:32:00,
2013-03-18 20:42:00,29.0,28.0,29.82,WNW,292,15.0,26.0,97,0.00,,,0.01,,2013-03-19 01:42:00,
2013-03-18 20:52:00,28.0,28.0,29.83,WNW,282,17.0,26.0,98,0.00,,,0.01,,2013-03-19 01:52:00,
2013-03-18 21:02:00,28.0,27.0,29.83,WNW,299,16.0,26.0,95,0.00,,,0.01,,2013-03-19 02:02:00,
2013-03-18 21:12:00,28.0,27.0,29.83,WNW,299,16.0,26.0,95,0.00,,,0.01,,2013-03-19 02:12:00,
2013-03-18 21:22:00,28.0,27.0,29.83,WNW,299,16.0,26.0,95,0.00,,,0.01,,2013-03-19 02:22:00,
2013-03-18 21:32:00,26.0,25.0,29.85,West,261,16.0,21.0,94,0.00,,,0.01,,2013-03-19 02:32:00,
2013-03-18 21:43:00,26.0,25.0,29.85,West,261,16.0,21.0,94,0.00,,,0.01,,2013-03-19 02:43:00,
2013-03-18 21:53:00,26.0,25.0,29.85,West,261,16.0,21.0,94,0.00,,,0.01,,2013-03-19 02:53:00,
2013-03-18 22:02:00,26.0,24.0,29.86,West,261,17.0,26.0,93,0.00,,,0.01,,2013-03-19 03:02:00,
2013-03-18 22:12:00,26.0,24.0,29.86,West,261,17.0,26.0,93,0.00,,,0.01,,2013-03-19 03:12:00,
2013-03-18 22:22:00,26.0,24.0,29.86,West,261,17.0,26.0,93,0.00,,,0.01,,2013-03-19 03:22:00,
2013-03-18 22:33:00,25.0,23.0,29.88,WNW,291,15.0,18.0,92,0.00,,,0.01,,2013-03-19 03:33:00,
2013-03-18 22:43:00,25.0,23.0,29.88,WNW,291,15.0,18.0,92,0.00,,,0.01,,2013-03-19 03:43:00,
2013-03-18 22:54:00,25.0,23.0,29.88,WNW,291,15.0,18.0,92,0.00,,,0.01,,2013-03-19 03:54:00,
2013-03-18 23:03:00,25.0,22.0,29.88,West,263,15.0,21.0,89,0.00,,,0.01,,2013-03-19 04:03:00,
2013-03-18 23:13:00,25.0,22.0,29.88,West,263,15.0,21.0,89,0.00,,,0.01,,2013-03-19 04:13:00,
2013-03-18 23:23:00,25.0,22.0,29.89,West,277,15.0,24.0,88,0.00,,,0.01,,2013-03-19 04:23:00,
2013-03-18 23:33:00,25.0,22.0,29.89,West,270,15.0,18.0,88,0.00,,,0.01,,2013-03-19 04:33:00,
2013-03-18 23:43:00,25.0,22.0,29.89,West,270,15.0,18.0,88,0.00,,,0.01,,2013-03-19 04:43:00,
2013-03-18 23:52:00,25.0,22.0,29.90,West,271,15.0,18.0,87,0.00,,,0.01,,2013-03-19 04:52:00,